Location: Gro�wechsungen
(51.4926°N, 10.6901°E)
Time: 10:24:15
(UTC+00:00)

ATLAS CENTAUR R/B - Pass Details

Date: 18 September 2020
Orbit: 479 x 667 km, 64.7° (Epoch: 12 October)

Event Time Altitude Azimuth Distance (km) Brightness Sun altitude
Rises 21:09:10 0° 313° (NW) 2,579 5.9 -31.1°
Reaches altitude 10° 21:12:33 10° 346° (NNW) 1,675 4.5 -31.4°
Enters shadow 21:13:42 12° 4° (N) 1,553 4.1 -31.5°
